Chillicothe, MO

6:20 PM CDT on May 27, 2017 (GMT -0500)
Chillicothe

Weather History for KCDJ - December, 2012

Change the Weather History Date:

Sunday, December 30, 2012

  Actual Average (KIRK) Record (KIRK)
Temperature  
Mean Temperature 28 °F -  
Max Temperature 42 °F 33 °F 66 °F (1965)
Min Temperature 14 °F 17 °F -6 °F (1983)
Degree Days  
Heating Degree Days 37    
Moisture  
Dew Point 20 °F    
Average Humidity 67    
Maximum Humidity 92    
Minimum Humidity 47    
Precipitation  
Precipitation 0.00 in - - ()
Sea Level Pressure  
Sea Level Pressure 30.28 in    
Wind  
Wind Speed 5 mph (South)    
Max Wind Speed 14 mph    
Max Gust Speed 23 mph    
Averages and records for this station are not official NWS values.
T = Trace of Precipitation, MM = Missing Value Source: NWS Daily Summary

Daily Weather History Graph

Daily Weather History Graph

Search for Another Location

Airport or City:

Trip Planner

Search our weather history database for the weather conditions in past years. The results will help you decide how hot, cold, wet, or windy it might be!

Date:

Astronomy

Dec. 30, 2012 Rise Set
Actual Time 7:35 AM CST 4:59 PM CST
Civil Twilight 7:05 AM CST 5:29 PM CST
Nautical Twilight 6:31 AM CST 6:03 PM CST
Astronomical Twilight 5:58 AM CST 6:36 PM CST
Moon 7:30 PM CST (12/30) 8:45 AM CST (12/30)
Length of Visible Light 10h 24m
Length of Day
9h 23m
Waning Gibbous, 95% of the Moon is Illuminated
Dec 30
Waning Gibbous
Jan 4
Last Quarter
Jan 11
New
Jan 18
First Quarter
Jan 26
Full

Hourly Weather History & Observations

Time (CST) Temp. Windchill Dew Point Humidity Pressure Visibility Wind Dir Wind Speed Gust Speed Precip Events Conditions
12:52 AM 16.0 °F - 14.0 °F 92% 30.36 in - Calm Calm - N/A   Unknown
1:52 AM 19.0 °F 11.1 °F 15.1 °F 85% 30.38 in - WSW 5.8 mph - N/A   Unknown
2:52 AM 19.9 °F - 16.0 °F 85% 30.39 in - Calm Calm - N/A   Unknown
3:52 AM 14.0 °F - 12.0 °F 92% 30.38 in - Calm Calm - N/A   Unknown
4:52 AM 16.0 °F - 14.0 °F 92% 30.39 in - Calm Calm - N/A   Unknown
5:52 AM 17.1 °F - 15.1 °F 92% 30.38 in - Calm Calm - N/A   Unknown
7:52 AM 19.0 °F 12.3 °F 17.1 °F 92% 30.39 in - South 4.6 mph - N/A   Unknown
8:52 AM 21.9 °F 14.5 °F 18.0 °F 85% 30.39 in - South 5.8 mph - N/A   Unknown
9:52 AM 27.0 °F 19.5 °F 19.9 °F 75% 30.39 in - South 6.9 mph - N/A   Unknown
10:52 AM 32.0 °F 25.6 °F 21.9 °F 66% 30.38 in - South 6.9 mph - N/A   Unknown
11:52 AM 35.1 °F 30.1 °F 21.9 °F 59% 30.33 in - South 5.8 mph - N/A   Unknown
12:52 PM 39.9 °F 32.9 °F 24.1 °F 53% 30.27 in - SSW 11.5 mph - N/A   Unknown
1:52 PM 41.0 °F 34.7 °F 23.0 °F 49% 30.24 in - South 10.4 mph - N/A   Unknown
2:52 PM 42.1 °F 36.1 °F 23.0 °F 47% 30.22 in - South 10.4 mph - N/A   Unknown
3:52 PM 41.0 °F 34.3 °F 23.0 °F 49% 30.21 in - South 11.5 mph - N/A   Unknown
4:52 PM 41.0 °F 34.3 °F 24.1 °F 51% 30.17 in - South 11.5 mph 23.0 mph N/A   Unknown
5:52 PM 41.0 °F 33.5 °F 21.9 °F 47% 30.17 in - South 13.8 mph - N/A   Unknown
6:52 PM 39.0 °F 31.4 °F 23.0 °F 53% 30.18 in - South 12.7 mph 23.0 mph N/A   Unknown
7:52 PM 37.9 °F 31.5 °F 24.1 °F 57% 30.18 in - South 9.2 mph - N/A   Unknown
8:52 PM 37.9 °F 30.5 °F 23.0 °F 55% 30.17 in - SSW 11.5 mph - N/A   Unknown
9:52 PM 37.9 °F 31.5 °F 21.9 °F 53% 30.15 in - South 9.2 mph - N/A   Unknown
10:52 PM 37.0 °F 31.0 °F 19.9 °F 50% 30.16 in - South 8.1 mph - N/A   Unknown
11:52 PM 37.0 °F 31.0 °F 21.9 °F 54% 30.16 in - SSW 8.1 mph - N/A   Unknown